Content
SEND FEEDBACK

Daily
Averages
Monthly
Summary
India

AMRITSAR, INDIA


Home > Asia > India
Elevation: 752 feet     Latitude: 31 42N     Longitude: 074 47E

WEATHER
 
SELECT A DAY
Number of Records: 132,537;   Date Range: 7/1/96 - 12/27/14
 
SHARE

PRINT THIS DATA

[ ← Previous Day ]
WEATHER ALMANAC - FEBRUARY 13, 2013
[ Next Day → ]
[ °C ]   °F
Weather ElementAverageHighLow
Temperature58.2 °F72 °F (2:30 pm) (8:00 am)
Dewpoint51.8 °F57.2 °F (6:00 pm) (7:00 pm)
Humidity81.3 %100 % (12:30 am)44 % (2:30 pm)
Barometer30.03 in30.09 in (8:30 pm)29.97 in (5:30 pm)
Wind Speed2.8 mph9.2 mph (2:00 pm)
Weather ElementAverage
Visibility2.2 mi
Wind DirectionSE (130.7 °)

Weather ElementTotal
Precipitation---
Heating Degree Days29 (Base 65)
Averaged from 48 records on February 13, 2013
WEATHER CONDITIONS BREAKOUT
WIND DIRECTION BREAKOUT
WEATHER BY HOUR - FEBRUARY 13, 2013
[ °C ]   °F
Local TimeTemperatureDewpointHumidityBarometerVisibilityWind DirectionWind SpeedGust SpeedPrecipitationEventsConditions
12:30 AM51.8 °F51.8 °F100 %30.04 in1.9 miCalmScattered Clouds
1:00 AM50.0 °F50.0 °F100 %30.04 in1.9 miCalmScattered Clouds
1:30 AM51.8 °F51.8 °F100 %30.04 in1.9 miCalmScattered Clouds
2:00 AM50.0 °F50.0 °F100 %30.04 in1.9 miCalmScattered Clouds
2:30 AM50.0 °F50.0 °F100 %30.04 in1.9 miCalmScattered Clouds
3:00 AM48.2 °F48.2 °F100 %30.04 in1.2 miCalmScattered Clouds
3:30 AM50.0 °F50.0 °F100 %30.04 in1.2 miCalmScattered Clouds
4:00 AM50.0 °F50.0 °F100 %30.04 in1.2 miCalmScattered Clouds
4:30 AM50.0 °F50.0 °F100 %30.04 in1.2 miCalmScattered Clouds
5:00 AM48.2 °F48.2 °F100 %30.01 in1.2 miCalmScattered Clouds
5:30 AM50.0 °F50.0 °F100 %30.01 in1.2 miCalmScattered Clouds
6:00 AM48.2 °F48.2 °F100 %30.04 in1.2 miCalmScattered Clouds
7:00 AM48.2 °F48.2 °F100 %30.04 in1.2 miNNW (340°)5.8 mphScattered Clouds
7:30 AM48.2 °F48.2 °F100 %30.04 in1.2 miCalmScattered Clouds
8:00 AM0.0 °F0.0 °F30.04 in1.6 miCalmScattered Clouds
8:30 AM51.0 °F51.0 °F98 %30.06 in1.0 miCalmMist
8:30 AM50.0 °F50.0 °F100 %30.04 in1.6 miCalmScattered Clouds
9:30 AM57.2 °F55.4 °F94 %30.06 in1.9 miVariable2.3 mphPartly Cloudy
10:00 AM60.8 °F51.8 °F72 %30.06 in2.5 miNW (320°)5.8 mphHaze
10:30 AM62.6 °F51.8 °F68 %30.06 in2.5 miNW (320°)5.8 mphHaze
11:30 AM66.0 °F54.0 °F56 %30.07 in2.0 miWNW (290°)5.8 mphHaze
11:30 AM66.2 °F53.6 °F64 %30.06 in3.1 miWNW (290°)5.8 mphHaze
12:00 PM68.0 °F53.6 °F60 %30.06 in3.1 miWNW (300°)4.6 mphHaze
12:30 PM68.0 °F51.8 °F56 %30.06 in3.7 miWNW (300°)8.1 mphScattered Clouds
1:00 PM69.8 °F55.4 °F60 %30.06 in3.7 miWNW (290°)6.9 mphScattered Clouds
1:30 PM69.8 °F55.4 °F60 %30.04 in3.7 miWNW (290°)8.1 mphScattered Clouds
2:00 PM71.6 °F55.4 °F57 %30.04 in3.7 miWNW (290°)9.2 mphScattered Clouds
2:30 PM72.0 °F54.0 °F44 %30.00 in2.0 miWNW (290°)8.1 mphPartly Cloudy
2:30 PM71.6 °F53.6 °F53 %30.01 in3.7 miWest (280°)8.1 mphScattered Clouds
3:00 PM71.6 °F51.8 °F50 %30.01 in3.7 miNW (310°)9.2 mphScattered Clouds
3:30 PM71.6 °F53.6 °F53 %30.01 in3.7 miWNW (300°)6.9 mphScattered Clouds
4:00 PM71.6 °F53.6 °F53 %30.01 in3.7 miWNW (290°)6.9 mphScattered Clouds
4:30 PM69.8 °F53.6 °F56 %30.01 in3.1 miWest (280°)6.9 mphHaze
5:00 PM69.8 °F53.6 °F56 %29.98 in3.1 miWNW (290°)4.6 mphHaze
5:30 PM69.0 °F56.0 °F53 %29.97 in1.0 miWest (270°)3.5 mphHaze
5:30 PM69.8 °F55.4 °F60 %29.98 in3.1 miWest (270°)3.5 mphHaze
6:00 PM66.2 °F57.2 °F73 %29.98 in2.5 miCalmScattered Clouds
6:30 PM64.4 °F57.2 °F77 %29.98 in2.5 miWest (270°)4.6 mphScattered Clouds
7:00 PM62.6 °F55.4 °F77 %29.98 in2.2 miVariable2.3 mphScattered Clouds
7:30 PM60.8 °F57.2 °F88 %29.98 in2.2 miVariable2.3 mphScattered Clouds
8:30 PM58.0 °F57.0 °F94 %30.00 in1.0 miCalmMist
8:30 PM59.0 °F57.2 °F94 %30.09 in2.2 miCalmScattered Clouds
9:00 PM57.2 °F55.4 °F94 %30.01 in2.2 miCalmScattered Clouds
9:30 PM57.2 °F57.2 °F100 %30.01 in2.2 miCalmScattered Clouds
10:30 PM53.6 °F53.6 °F100 %30.01 in1.9 miCalmScattered Clouds
11:00 PM53.6 °F53.6 °F100 %30.01 in1.9 miCalmScattered Clouds
11:30 PM53.0 °F53.0 °F99 %30.02 in1.0 miCalmMist
11:30 PM53.6 °F53.6 °F100 %30.01 in1.6 miCalmPartly Cloudy
Hourly data recorded from VIAR, located miles away from Amritsar, India







STORIES FROM OUR PARTNERS